Weather observations for the past three days for
Florence - Florence Regional Airport
Imperial (Metric)
Date Time (edt) Wind (mph) Vis. (mi.) Weather Sky Cond. Temperature (ºF) Relative Humidity Wind Chill (°F) Heat Index (°F) Pressure Precipitation (in)
Air Dwpt 6 hour altimeter (in) sea level (mb) 1 hr 3 hr 6 hr
Max. Min.
17 19:53 SE 12 10.00 Fair CLR 84 66.9 91 84 57% 87 30.12 1019.8
17 18:53 SE 12 10.00 Fair CLR 88 68 52% 92 30.12 1019.5
17 17:53 SE 10 10.00 Fair CLR 90 66.9 47% 93 30.12 1019.5
17 16:53 E 13 G 16 10.00 Partly Cloudy SCT060 SCT070 90 66.9 47% 93 30.13 1020.1
17 15:53 E 7 10.00 Partly Cloudy SCT045 SCT075 91 69.1 49% 96 30.15 1020.6
17 14:53 Calm 10.00 Partly Cloudy SCT041 89.1 70 53% 94 30.17 1021.3
17 13:53 Vrbl 5 10.00 Mostly Cloudy FEW044 BKN060 BKN075 88 69.1 88 75 54% 92 30.19 1021.9
17 12:53 Vrbl 6 10.00 Mostly Cloudy FEW040 BKN060 86 69.1 57% 90 30.2 1022.3
17 11:53 E 3 10.00 Mostly Cloudy FEW033 BKN070 BKN080 84 70 63% 88 30.21 1022.6
17 10:53 Vrbl 3 10.00 Mostly Cloudy BKN090 82.9 70 65% 87 30.21 1022.8
17 09:53 SE 6 10.00 Partly Cloudy SCT100 80.1 70 71% 83 30.21 1022.8
17 08:53 E 6 10.00 Mostly Cloudy BKN100 77 70 79% 79 30.22 1022.9
17 07:53 E 8 10.00 Mostly Cloudy BKN100 75 69.1 75 71.1 82% 75 30.2 1022.4
17 06:53 E 6 10.00 Overcast OVC065 73 68 84% 30.19 1022.0
17 05:53 E 3 10.00 Overcast OVC085 72 66.9 84% 30.17 1021.4
17 04:53 NE 5 10.00 Mostly Cloudy FEW055 BKN080 72 66.9 84% 30.16 1021.1
17 03:53 E 5 10.00 Overcast OVC070 73 68 84% 30.16 1020.9
17 02:53 E 6 10.00 Mostly Cloudy BKN070 73 69.1 87% 30.17 1021.2
17 01:53 E 6 10.00 A Few Clouds FEW055 72 70 81 72 94% 30.17 1021.5
17 00:53 E 5 10.00 Fair CLR 73 70 90% 30.17 1021.5
16 23:53 Calm 10.00 Fair CLR 75 70 84% 75 30.17 1021.4
16 22:53 SE 7 10.00 Fair CLR 75.9 69.1 79% 77 30.17 1021.2
16 21:53 SE 6 10.00 Fair CLR 78.1 66.9 69% 80 30.15 1020.7
16 20:53 SE 7 10.00 Partly Cloudy FEW050 SCT060 79 66.9 67% 81 30.15 1020.5
16 19:53 SE 12 10.00 Mostly Cloudy BKN055 81 70 93 75.9 69% 84 30.13 1020.0 0.01
16 18:53 SE 9 10.00 Fair CLR 84.9 73 68% 92 30.11 1019.3
16 17:53 S 9 10.00 Mostly Cloudy SCT095 BKN110 84 75 74% 92 30.11 1019.2
16 16:53 SE 13 G 23 8.00 Light Rain SCT037 BKN049 OVC080 78.1 73 85% 81 30.11 1019.2 0.01 0.01
16 15:53 SE 13 10.00 Overcast BKN048 BKN070 OVC100 91.9 71.1 51% 99 30.09 1018.7
16 14:53 E 7 10.00 Partly Cloudy FEW048 SCT120 91.9 70 49% 98 30.11 1019.1
16 13:53 SE 13 G 18 10.00 Mostly Cloudy SCT043 BKN050 BKN060 91 72 91.9 75.9 54% 99 30.13 1020.0
16 12:53 Calm 10.00 Mostly Cloudy SCT041 SCT050 BKN065 89.1 72 57% 96 30.15 1020.5
16 11:53 Calm 10.00 Mostly Cloudy BKN055 88 71.1 57% 94 30.15 1020.8
16 10:53 SE 3 10.00 Partly Cloudy SCT110 84.9 73 68% 92 30.15 1020.8
16 09:53 SE 8 10.00 Mostly Cloudy FEW015 BKN055 82.9 73 72% 89 30.15 1020.7
16 08:53 SE 9 10.00 Mostly Cloudy BKN013 79 72 79% 82 30.14 1020.4
16 07:53 E 9 10.00 Overcast OVC011 75.9 72 75.9 73 88% 76 30.12 1019.6
16 06:53 E 7 7.00 Partly Cloudy SCT010 73 72 96% 30.1 1018.9
16 05:53 E 7 8.00 Fair CLR 73 72 96% 30.09 1018.5
16 04:53 E 7 8.00 Partly Cloudy SCT011 73 72 96% 30.08 1018.1
16 03:53 E 7 8.00 A Few Clouds FEW011 73.9 72 94% 30.07 1018.1
16 02:53 E 9 9.00 Partly Cloudy SCT010 75 72 90% 74 30.07 1017.8
16 01:53 SE 5 10.00 A Few Clouds FEW065 75 71.1 82.9 75 88% 75 30.06 1017.6
16 00:53 E 8 10.00 Mostly Cloudy BKN090 75 70 84% 75 30.06 1017.5
15 23:53 NE 3 10.00 Fair CLR 75.9 71.1 85% 76 30.05 1017.3
15 22:53 Calm 10.00 Fair CLR 77 70 79% 79 30.04 1017.0
15 21:53 S 7 10.00 Fair CLR 78.1 72 82% 80 30.02 1016.4
15 20:53 SE 3 10.00 A Few Clouds FEW120 81 71.1 72% 85 29.99 1015.4
15 19:53 S 3 10.00 A Few Clouds FEW120 82.9 70 97 82 65% 87 29.98 1015.0
15 18:53 S 12 10.00 Mostly Cloudy FEW060 BKN080 BKN095 84.9 70 61% 89 29.98 1014.9
15 17:53 NE 10 10.00 Fair CLR 95 69.1 43% 101 29.94 1013.6
15 16:53 NE 10 10.00 Partly Cloudy SCT110 95 68 41% 100 29.95 1013.9
15 15:53 NE 8 10.00 A Few Clouds FEW065 96.1 70 43% 103 29.94 1013.7
15 14:53 Vrbl 3 10.00 A Few Clouds FEW060 FEW070 93.9 70 46% 100 29.95 1013.9
15 13:53 Vrbl 5 10.00 A Few Clouds FEW050 95 71.1 96.1 77 46% 102 29.97 1014.7
15 12:53 Vrbl 7 10.00 Partly Cloudy FEW048 SCT075 93.9 71.1 48% 101 29.99 1015.1
15 11:53 NW 5 10.00 Fair CLR 91.9 71.1 51% 99 29.98 1014.9
15 10:53 Calm 10.00 Fair CLR 90 70 52% 95 29.98 1015.0
15 09:53 W 5 10.00 Fair CLR 84.9 70 61% 89 29.98 1014.7
15 08:53 W 5 10.00 Fair CLR 81 70 69% 84 29.98 1014.7
15 07:53 SW 5 9.00 Partly Cloudy SCT080 77 69.1 77 73 77% 79 29.97 1014.5
15 06:53 W 6 10.00 Fair CLR 73.9 69.1 85% 29.95 1013.9
15 05:53 SW 6 10.00 Partly Cloudy SCT075 73 70 90% 29.93 1013.3
15 04:53 SW 5 10.00 Fair CLR 73 70 90% 29.93 1013.1
15 03:53 SW 5 10.00 Fair CLR 73.9 70 88% 29.92 1012.7
15 02:53 SW 6 10.00 Fair CLR 75 70 84% 75 29.92 1012.8
15 01:53 SW 6 10.00 Fair CLR 75 69.1 89.1 75 82% 75 29.92 1012.9
15 00:53 S 5 10.00 Fair CLR 75.9 68 77% 77 29.93 1013.0
14 23:53 S 6 10.00 Fair CLR 77 68 74% 79 29.92 1012.9
14 22:53 Calm 10.00 Fair CLR 78.1 69.1 74% 80 29.91 1012.5
14 21:53 Calm 10.00 Fair CLR 81 69.1 67% 84 29.9 1012.1
14 20:53 Calm 10.00 Fair CLR 84 68 59% 87 29.88 1011.4
Date Time (edt) Wind (mph) Vis. (mi.) Weather Sky Cond. Air Dwpt Max. Min. Relative Humidity Wind Chill (°F) Heat Index (°F) altimeter (in) sea level (mb) 1 hr 3 hr 6 hr
6 hour
Temperature (ºF) Pressure Precipitation (in)